Location: Mentone
(34.5413°N, 85.5351°W)
Time: 05:23:23
(UTC-06:00)

A-11 Canister half - Visible Passes

Search period start: 25 November 2017 00:00
Search period end: 05 December 2017 00:00
Orbit: 1527 x 1682 km, 47.3° (Epoch: 25 November)

Date Brightness Start Highest point End Pass type
(mag) Time Alt. Az. Time Alt. Az. Time Alt. Az.
25 Nov 9.8 17:41:15 10° W 17:50:39 42° N 17:57:31 18° NE visible
25 Nov 9.8 19:48:30 10° NW 19:55:49 40° NNW 19:55:49 40° NNW visible
25 Nov 11.3 21:54:04 10° NW 21:54:07 10° NW 21:54:07 10° NW visible
26 Nov 9.8 17:19:29 10° W 17:28:56 42° NNW 17:37:05 14° NE visible
26 Nov 9.6 19:26:49 10° WNW 19:35:23 43° N 19:35:23 43° N visible
26 Nov 11.1 21:32:26 10° NW 21:33:41 15° NW 21:33:41 15° NW visible
27 Nov 9.8 16:57:44 10° W 17:07:14 43° NNW 17:16:32 10° ENE visible
27 Nov 9.5 19:05:08 10° WNW 19:14:30 43° NNE 19:14:59 42° NNE visible
27 Nov 10.8 21:10:48 10° NW 21:13:17 20° NW 21:13:17 20° NW visible
28 Nov 9.5 18:43:25 10° WNW 18:52:47 42° NNE 18:54:36 39° NE visible
28 Nov 10.5 20:49:10 10° NW 20:52:55 27° NW 20:52:55 27° NW visible
29 Nov 9.6 18:21:44 10° WNW 18:31:05 41° N 18:34:16 34° NE visible
29 Nov 10.1 20:27:31 10° NW 20:32:34 35° NW 20:32:34 35° NW visible
30 Nov 9.6 18:00:01 10° WNW 18:09:23 41° N 18:13:58 27° ENE visible
30 Nov 9.7 20:05:53 10° NW 20:12:16 45° NW 20:12:16 45° NW visible
01 Dec 9.7 17:38:19 10° WNW 17:47:40 41° N 17:53:43 21° ENE visible
01 Dec 9.3 19:44:15 10° NW 19:52:02 57° NNW 19:52:02 57° NNW visible
01 Dec 11.3 21:50:02 10° WNW 21:50:21 11° WNW 21:50:21 11° WNW visible
02 Dec 9.7 17:16:36 10° WNW 17:25:57 40° N 17:33:31 15° ENE visible
02 Dec 9.0 19:22:36 10° NW 19:31:51 67° N 19:31:51 67° N visible
02 Dec 11.0 21:28:20 10° WNW 21:30:10 17° WNW 21:30:10 17° WNW visible
03 Dec 9.7 16:54:53 10° WNW 17:04:14 40° N 17:13:21 10° ENE visible
03 Dec 8.9 19:00:58 10° NW 19:10:56 67° NNE 19:11:45 65° NE visible
03 Dec 10.7 21:06:38 10° WNW 21:10:04 23° WNW 21:10:04 23° WNW visible
04 Dec 9.0 18:39:19 10° NW 18:49:17 65° NNE 18:51:44 51° E visible
04 Dec 10.3 20:44:56 10° WNW 20:50:04 32° W 20:50:04 32° W visible
